Probability
3 13 68 48 61 58 61 58 71 71 71 71 74 77 77 77 87 77 81 81 71 74 71 74 68 65 58 55 52 52 55 55 48 52 48 45 45 45 48 52 48 32 48
3 23 68 58 61 65 68 71 77 68 68 74 77 77 77 74 74 74 77 71 52 55 61 68 68 52 48 39 45 45 48 52 48 39 35 39 39 48 52 48 35 32 48
10 23 48 61 68 68 74 71 81 71 71 77 74 84 68 74 71 74 71 65 61 61 55 55 52 52 45 42 48 42 42 39 45 45 42 29 39 42 55 42 39 39 42
16 16 35 65 61 65 71 71 74 74 74 77 81 74 68 71 71 65 65 68 61 61 55 48 42 42 39 35 39 35 39 35 39 32 19 10 26 35 42 48 45 39 35
16 19 26 71 71 68 74 68 71 74 77 71 71 77 68 68 61 58 55 52 48 48 55 42 45 45 42 39 35 35 45 39 35 23 10 3 16 39 32 42 39 32 39
16 19 35 71 65 68 71 68 65 71 77 81 71 74 61 58 55 48 45 52 58 55 55 48 48 55 52 39 39 35 39 32 29 13 10 6 13 29 35 35 42 35 39
19 23 35 71 65 68 74 74 71 74 81 68 71 61 55 48 52 48 52 58 61 58 52 52 48 52 55 45 32 29 29 39 23 13 10 6 13 26 32 42 48 39 48
13 13 29 61 74 74 65 68 65 71 74 68 68 65 58 58 48 48 55 58 58 55 58 52 39 32 42 35 29 32 32 32 10 10 13 6 13 26 29 42 42 39 35
16 13 26 39 45 65 65 68 68 71 71 71 71 68 61 55 55 45 52 55 52 55 58 48 39 32 29 32 23 32 35 32 13 13 6 3 16 16 29 45 45 32 39
10 13 13 19 23 35 42 61 74 74 74 74 68 68 61 55 48 55 48 55 61 55 52 42 42 29 45 42 29 35 39 32 16 10 10 6 16 26 35 45 42 42 39
6 10 6 6 16 16 23 35 48 61 65 61 52 58 55 32 23 35 32 58 52 52 52 52 45 48 45 39 52 45 35 16 3 3 3 10 26 32 45 39 45 45 45
10 3 6 6 3 10 13 13 16 26 16 13 10 16 16 13 10 26 26 48 48 58 55 58 55 52 42 29 32 29 23 10 6 0 3 16 32 32 32 32 39 45 42
3 3 0 6 6 6 3 6 3 0 3 3 3 3 3 6 0 10 6 10 6 32 26 29 29 26 23 13 16 10 6 6 3 0 6 26 39 29 29 35 35 32 32
3 0 0 3 3 3 3 3 3 0 3 6 6 6 6 3 0 3 0 0 6 6 10 13 13 13 19 19 13 10 10 6 0 3 6 16 32 35 35 48 42 35 35
0 0 0 0 0 0 3 0 3 3 6 6 0 3 0 0 0 3 3 0 3 3 10 10 6 6 6 10 16 13 10 3 6 3 3 13 35 42 42 48 42 52 42
0 0 0 0 0 3 3 0 0 3 3 0 0 3 6 0 0 0 0 3 3 6 6 3 3 6 6 6 16 13 6 3 6 3 3 6 32 42 45 39 42 48 45
0 0 0 3 0 3 3 3 6 3 6 6 6 3 6 6 6 0 0 0 0 6 6 3 10 13 10 10 10 16 13 10 6 10 3 3 10 26 48 48 52 45 48
3 3 6 13 6 6 6 3 6 10 6 6 3 3 10 6 6 0 0 0 6 6 10 10 13 13 13 16 10 6 6 3 3 10 6 6 3 3 19 45 52 55 48
6 10 10 10 13 10 6 3 6 3 3 6 6 10 6 6 6 3 0 0 3 10 10 10 10 6 6 6 10 10 3 6 3 3 10 0 0 16 13 6 32 39 42
6 6 10 3 6 6 13 10 0 0 0 6 6 3 6 3 10 3 0 3 10 6 6 10 13 10 10 10 13 0 0 0 0 0 0 3 3 0 0 3 10 16 35
13 13 10 10 10 13 16 13 6 6 3 10 3 6 6 6 6 10 13 13 6 6 13 13 10 13 10 6 6 3 0 0 0 3 0 0 0 0 0 3 6 6 10
19 10 6 3 6 6 6 6 3 3 3 10 3 3 10 6 13 10 13 10 6 0 3 10 6 10 6 6 6 0 3 0 0 0 0 3 3 3 6 3 6 10 10
10 13 13 3 10 6 6 3 0 0 0 0 3 3 6 10 13 13 10 3 3 3 6 3 6 13 13 3 0 3 3 3 3 0 0 0 6 6 6 3 13 13 13
10 10 6 10 13 6 6 3 3 3 0 0 3 3 3 10 13 13 6 3 6 6 6 10 16 13 13 10 6 3 6 6 3 6 3 3 3 10 6 6 10 10 13
19 16 13 13 16 16 6 6 6 6 3 3 3 6 6 10 16 13 10 6 6 6 10 10 16 16 13 13 13 6 3 3 3 6 6 3 3 6 6 6 10 10 10
19 16 16 10 10 10 6 6 3 6 3 3 6 6 10 16 13 13 16 13 16 10 6 13 13 16 16 13 10 10 16 16 6 6 6 6 10 6 6 6 10 6 6
Height
5868 5868 5869 5868 5869 5869 5869 5870 5870 5870 5871 5871 5872 5872 5873 5873 5874 5874 5875 5875 5875 5875 5875 5875 5875 5876 5876 5876 5876 5877 5878 5879 5880 5880 5881 5882 5882 5882 5883 5883 5884 5884 5884
5869 5869 5870 5869 5870 5870 5870 5871 5871 5871 5871 5872 5872 5873 5873 5874 5874 5875 5875 5875 5876 5875 5875 5876 5876 5876 5876 5876 5876 5877 5878 5879 5879 5880 5881 5881 5882 5882 5883 5883 5883 5884 5884
5870 5870 5870 5870 5871 5871 5871 5872 5872 5872 5873 5873 5873 5874 5874 5875 5875 5875 5875 5876 5876 5876 5876 5876 5876 5876 5876 5877 5877 5878 5879 5879 5879 5880 5880 5881 5881 5882 5882 5883 5883 5883 5883
5871 5871 5871 5871 5872 5872 5872 5873 5873 5874 5874 5874 5874 5875 5875 5876 5876 5876 5876 5876 5876 5877 5877 5877 5876 5876 5877 5877 5877 5878 5879 5879 5879 5880 5880 5881 5881 5882 5882 5882 5882 5882 5883
5872 5872 5872 5872 5873 5873 5874 5874 5874 5875 5875 5875 5876 5876 5876 5876 5876 5876 5877 5877 5877 5877 5877 5877 5877 5877 5877 5878 5878 5878 5878 5879 5879 5880 5880 5881 5881 5881 5881 5882 5882 5882 5882
5873 5873 5873 5873 5874 5874 5875 5875 5875 5876 5876 5876 5877 5877 5877 5877 5877 5877 5878 5878 5878 5878 5878 5878 5878 5878 5878 5878 5878 5878 5879 5879 5879 5880 5880 5880 5881 5881 5881 5881 5881 5881 5881
5874 5874 5873 5874 5875 5875 5876 5876 5876 5877 5877 5878 5878 5878 5878 5878 5879 5878 5878 5878 5878 5878 5878 5878 5878 5878 5878 5878 5878 5879 5879 5879 5879 5880 5880 5880 5880 5881 5881 5881 5881 5881 5881
5875 5875 5874 5875 5876 5876 5876 5877 5878 5878 5878 5879 5879 5879 5879 5879 5879 5879 5879 5879 5879 5879 5879 5879 5879 5878 5878 5878 5878 5879 5879 5879 5879 5880 5880 5880 5880 5880 5881 5881 5881 5880 5880
5876 5876 5876 5876 5877 5877 5877 5878 5879 5879 5879 5880 5880 5880 5880 5880 5880 5880 5880 5880 5880 5880 5879 5879 5879 5879 5878 5878 5878 5879 5879 5879 5880 5880 5880 5880 5880 5880 5880 5880 5880 5880 5880
5877 5877 5877 5877 5878 5878 5879 5879 5880 5880 5880 5881 5881 5881 5881 5881 5881 5881 5881 5881 5881 5880 5880 5879 5879 5879 5878 5878 5878 5879 5879 5879 5880 5880 5880 5880 5880 5880 5880 5880 5880 5879 5879
5878 5879 5879 5879 5879 5880 5880 5880 5880 5881 5881 5881 5882 5882 5882 5882 5882 5882 5882 5882 5882 5881 5880 5880 5880 5879 5879 5878 5878 5878 5879 5879 5879 5880 5880 5880 5880 5880 5880 5880 5879 5879 5879
5880 5880 5880 5880 5880 5881 5881 5881 5881 5881 5881 5882 5882 5883 5883 5883 5883 5883 5883 5883 5882 5882 5882 5881 5881 5880 5879 5878 5878 5878 5878 5879 5879 5880 5880 5880 5880 5880 5880 5879 5879 5878 5878
5881 5881 5881 5881 5881 5881 5882 5882 5882 5882 5882 5882 5883 5883 5883 5884 5884 5883 5883 5883 5883 5882 5882 5882 5881 5881 5879 5878 5878 5878 5879 5879 5879 5880 5880 5880 5880 5880 5879 5879 5878 5878 5878
5882 5882 5882 5882 5882 5882 5882 5882 5882 5882 5882 5883 5883 5884 5884 5884 5884 5884 5884 5884 5883 5883 5883 5882 5882 5881 5880 5879 5879 5879 5879 5880 5880 5880 5880 5880 5879 5879 5879 5878 5878 5877 5877
5884 5883 5883 5883 5883 5883 5883 5883 5883 5883 5883 5884 5884 5884 5884 5885 5885 5885 5884 5884 5884 5883 5883 5883 5883 5882 5881 5881 5880 5880 5880 5880 5880 5880 5880 5879 5879 5878 5878 5877 5877 5877 5876
5885 5885 5884 5884 5884 5884 5884 5884 5884 5884 5884 5884 5884 5884 5885 5885 5885 5885 5885 5884 5884 5884 5883 5883 5883 5882 5882 5881 5881 5881 5881 5881 5880 5880 5879 5879 5878 5878 5877 5877 5876 5876 5875
5886 5886 5885 5885 5885 5885 5885 5885 5884 5884 5884 5885 5885 5885 5885 5885 5885 5885 5885 5884 5884 5884 5883 5883 5883 5882 5882 5881 5881 5881 5881 5880 5880 5879 5879 5878 5878 5877 5876 5876 5875 5875 5874
5887 5886 5886 5886 5886 5885 5885 5885 5885 5885 5885 5885 5885 5885 5885 5885 5885 5885 5885 5884 5884 5884 5883 5883 5883 5882 5882 5881 5881 5881 5880 5880 5879 5879 5878 5878 5877 5876 5876 5875 5874 5873 5873
5888 5887 5887 5886 5886 5886 5886 5885 5885 5885 5885 5885 5885 5885 5885 5885 5885 5885 5885 5884 5884 5883 5883 5883 5882 5882 5881 5881 5880 5880 5879 5879 5878 5878 5877 5877 5876 5875 5874 5873 5873 5872 5871
5889 5888 5887 5886 5886 5886 5886 5885 5885 5885 5885 5885 5884 5885 5885 5884 5884 5884 5884 5884 5883 5883 5883 5882 5882 5881 5881 5880 5879 5879 5878 5878 5877 5876 5876 5875 5874 5873 5873 5872 5871 5870 5870
5890 5888 5887 5886 5886 5886 5885 5885 5885 5884 5884 5884 5884 5884 5884 5884 5884 5884 5883 5883 5883 5882 5882 5881 5881 5880 5880 5879 5878 5878 5877 5876 5876 5875 5874 5873 5872 5871 5870 5870 5869 5868 5867
5890 5889 5888 5887 5886 5886 5885 5885 5884 5884 5884 5884 5884 5884 5884 5884 5884 5883 5883 5882 5882 5881 5881 5880 5880 5879 5878 5877 5877 5876 5875 5875 5874 5873 5872 5871 5870 5869 5868 5867 5867 5866 5865
5891 5890 5889 5888 5887 5886 5885 5885 5884 5884 5884 5883 5883 5883 5883 5882 5883 5883 5882 5881 5880 5880 5879 5879 5878 5877 5877 5876 5875 5874 5873 5872 5871 5871 5870 5869 5868 5867 5866 5865 5864 5863 5862
5891 5890 5889 5888 5887 5886 5885 5885 5884 5884 5883 5883 5883 5882 5882 5882 5882 5881 5880 5879 5879 5878 5878 5877 5876 5875 5874 5873 5872 5871 5871 5870 5869 5868 5867 5866 5865 5864 5863 5862 5861 5860 5859
5891 5890 5889 5888 5887 5886 5885 5884 5884 5883 5883 5882 5882 5881 5881 5880 5880 5879 5878 5878 5877 5877 5876 5875 5874 5873 5872 5871 5870 5868 5867 5866 5865 5865 5864 5863 5862 5860 5860 5859 5858 5857 5856
5891 5890 5889 5888 5887 5886 5885 5884 5883 5882 5882 5881 5881 5880 5880 5879 5878 5877 5877 5876 5875 5875 5874 5873 5871 5870 5869 5868 5867 5865 5864 5863 5862 5861 5860 5859 5857 5857 5856 5855 5854 5853 5852
Wind_Speed
7 7 6 6 7 8 8 8 7 7 6 6 6 5 5 5 5 4 4 4 3 3 3 3 3 2 1 1 1 2 2 2 2 3 3 3 2 3 3 3 3 2 3
7 7 7 7 8 8 8 8 8 7 7 7 7 6 6 5 4 4 4 3 4 4 4 3 3 2 2 1 1 1 2 1 2 2 3 3 3 3 3 2 3 3 3
8 8 7 8 8 9 9 9 9 9 8 8 7 7 6 5 5 4 4 3 3 4 4 4 4 3 3 2 2 1 1 1 2 2 3 3 3 3 3 2 3 3 3
8 8 8 8 8 9 9 10 9 8 8 8 8 7 6 6 5 5 5 4 4 4 4 4 4 4 3 2 2 1 1 1 1 2 2 2 2 3 2 2 3 3 3
8 8 8 8 8 9 9 9 9 9 8 8 8 7 7 6 5 6 5 4 4 4 4 4 4 4 4 3 3 2 2 2 2 2 2 1 1 2 2 2 3 3 4
8 8 8 8 8 8 9 9 8 9 8 8 7 7 6 6 6 6 6 5 5 5 5 4 4 3 3 3 3 2 2 2 1 2 1 1 1 1 1 1 2 2 3
8 8 9 9 9 9 9 9 8 9 8 8 7 7 6 6 6 6 6 6 6 5 5 4 4 3 3 3 2 3 2 2 1 1 1 1 1 1 1 1 2 2 2
9 9 9 9 9 9 9 9 8 8 8 8 7 6 6 6 6 6 6 7 7 6 5 4 4 3 3 3 3 3 2 3 2 2 1 1 1 0 0 1 2 2 3
8 9 9 9 9 9 9 8 8 7 7 7 7 6 6 7 7 6 6 6 6 6 5 4 4 3 3 3 2 3 2 2 2 2 2 1 1 1 1 1 2 2 2
8 8 9 9 8 8 8 8 7 7 6 6 6 7 7 7 7 6 6 6 6 5 5 5 4 4 3 3 2 3 2 2 2 2 2 1 1 1 2 2 2 2 2
8 8 8 8 8 7 7 7 6 6 6 5 5 6 6 6 6 5 5 5 5 5 5 5 5 4 4 4 3 3 2 2 1 2 2 1 1 2 2 2 3 3 2
8 8 8 8 7 7 6 6 5 5 5 5 5 5 5 5 5 5 4 4 5 5 5 5 5 4 4 4 4 3 3 2 2 2 2 1 2 2 2 3 3 2 2
8 8 8 7 6 6 6 6 6 6 4 4 5 5 5 5 4 4 4 3 4 4 5 5 4 4 4 4 3 3 2 2 2 2 3 2 2 3 3 3 3 3 3
8 8 7 6 5 6 5 5 6 6 5 5 5 4 4 4 4 4 4 4 4 4 4 4 4 4 4 3 3 3 3 2 2 2 3 3 3 3 3 4 3 4 4
8 8 7 6 5 5 4 5 5 5 5 5 5 4 4 3 3 3 3 3 3 3 3 3 3 3 3 3 3 3 3 3 3 3 3 3 3 3 3 4 4 4 5
8 7 7 6 6 5 5 5 5 5 5 5 5 4 4 3 3 2 3 2 3 2 2 2 3 3 3 3 2 2 3 3 3 4 4 4 4 4 4 4 4 5 5
8 7 6 6 6 5 6 5 5 5 5 4 4 4 3 3 3 2 2 2 1 1 1 2 2 3 3 3 2 2 3 4 4 4 5 5 5 5 5 5 5 5 5
7 6 6 5 5 5 5 5 5 4 4 3 3 3 2 2 2 2 2 1 1 1 1 2 3 3 3 3 3 4 4 5 5 6 6 6 6 7 6 6 6 6 6
7 6 6 5 5 4 4 4 4 3 2 2 1 1 1 1 1 1 1 2 2 2 2 3 4 5 4 4 4 5 5 6 6 6 7 7 7 7 7 7 7 6 6
6 6 6 5 4 4 3 3 2 2 1 1 0 0 1 2 1 1 2 2 2 3 3 4 5 6 6 5 6 6 6 7 7 7 7 8 8 8 8 8 8 8 8
6 6 6 5 4 4 3 2 1 1 1 2 1 0 1 2 2 3 3 3 4 4 4 5 6 6 6 6 7 7 8 8 9 9 8 9 9 9 9 10 10 10 10
6 5 5 5 3 3 3 3 2 1 1 2 2 1 2 3 3 3 4 4 5 5 5 6 6 7 7 7 8 8 9 9 9 9 9 10 10 10 10 11 11 12 13
5 5 5 5 4 3 3 3 3 2 2 2 2 2 2 3 4 4 5 6 6 7 7 8 8 8 9 9 10 10 10 11 11 11 11 11 11 11 12 12 12 13 13
4 4 5 4 4 3 3 3 3 3 3 3 3 3 3 4 5 6 6 7 7 8 8 9 10 10 10 10 11 12 12 12 12 12 13 12 13 13 13 13 13 14 13
4 5 5 4 4 3 3 2 2 2 2 3 4 4 5 6 6 7 7 8 8 9 10 10 11 11 11 12 12 13 13 13 13 14 14 15 15 15 15 15 14 14 14
5 5 5 5 4 4 5 5 4 4 4 4 5 6 6 7 8 8 8 9 9 10 11 12 12 13 13 13 14 14 14 14 14 15 15 16 17 17 17 16 15 15 15
Wind_Direction
89 97 99 98 106 102 100 101 95 95 89 83 84 89 89 85 85 84 81 74 66 58 57 62 69 73 105 144 161 158 171 197 207 201 197 205 210 207 203 201 211 215 213
92 99 100 97 97 97 98 94 90 91 91 87 87 87 86 84 88 92 83 71 65 56 54 61 67 74 88 105 151 161 149 156 176 179 191 199 202 206 209 216 219 222 216
95 102 101 100 97 97 98 93 92 91 90 88 90 89 86 78 83 90 83 73 65 59 54 59 70 80 75 89 106 109 125 143 178 181 191 197 198 202 216 232 227 228 227
98 104 107 106 101 98 98 94 93 90 90 91 91 88 87 77 73 76 75 71 67 62 58 60 68 74 73 83 91 94 107 140 163 176 168 168 180 199 218 233 244 241 234
105 112 113 110 105 103 99 95 92 90 90 90 87 86 84 76 69 69 65 65 61 64 66 73 70 69 66 74 79 78 98 121 137 153 154 159 183 207 231 242 250 249 248
107 111 111 110 109 106 102 98 95 93 89 88 87 86 79 72 68 74 68 59 58 62 66 70 70 68 73 79 75 61 71 79 110 142 155 147 189 202 220 233 248 259 257
105 107 107 108 106 106 104 100 99 94 91 92 91 87 77 72 76 73 69 66 68 67 65 70 74 71 74 80 69 50 53 66 84 113 124 104 103 169 202 239 263 273 281
103 103 104 106 106 102 104 101 100 95 90 89 88 83 77 73 78 77 71 69 68 66 68 66 71 70 72 81 74 55 52 65 71 85 88 81 67 68 293 277 290 295 291
105 106 106 107 107 101 100 101 102 98 90 84 81 76 84 82 79 76 72 66 61 60 62 64 70 67 68 72 71 64 66 66 64 64 67 67 60 41 331 320 310 297 293
101 103 105 105 105 101 99 102 103 98 90 84 80 77 86 82 77 75 69 64 59 57 64 66 64 64 65 72 73 79 78 67 35 39 45 56 50 8 341 329 318 306 296
98 100 100 97 96 95 98 104 106 99 94 88 85 83 84 81 81 82 75 67 61 59 69 64 60 59 63 76 83 84 77 62 27 22 36 48 20 348 344 341 333 326 314
93 97 97 95 97 94 93 96 102 99 100 99 97 95 93 89 87 85 79 69 63 67 74 64 64 63 68 77 78 71 66 54 25 24 30 28 0 347 339 336 336 335 327
94 95 96 93 91 92 93 92 95 98 102 103 101 98 100 95 90 88 88 85 73 73 79 72 67 63 60 61 60 64 59 45 20 22 21 16 352 342 337 332 330 325 323
86 90 94 93 89 92 93 93 94 95 99 101 98 97 95 94 93 92 92 87 80 73 75 71 66 63 52 50 49 48 41 32 17 9 11 1 342 334 329 324 324 324 316
84 86 87 85 87 95 91 97 91 92 97 101 102 99 94 88 94 96 89 86 85 74 69 63 49 47 44 45 41 35 26 14 2 342 340 344 339 330 318 312 309 311 310
83 84 82 81 81 90 93 95 93 97 99 102 103 93 95 89 87 95 91 82 90 73 49 43 29 13 11 18 22 12 4 356 346 338 329 325 327 323 318 313 306 305 304
77 81 81 79 80 85 90 87 88 93 97 102 104 95 89 88 93 86 91 86 85 47 2 352 343 334 332 338 336 331 341 340 337 334 328 322 315 312 308 313 313 310 303
71 74 80 81 87 88 85 87 90 87 93 103 108 99 88 92 92 78 60 56 49 21 353 340 332 324 321 321 314 310 312 312 315 320 322 322 317 311 307 305 306 306 303
62 66 75 85 92 89 89 88 88 87 93 90 91 94 90 89 80 50 15 9 1 353 345 339 337 330 324 315 305 301 302 304 306 314 316 316 314 309 305 302 299 297 295
54 61 67 73 79 83 78 81 96 92 71 32 357 38 12 10 359 344 318 321 323 324 326 331 330 329 326 319 314 309 306 305 307 309 308 312 311 306 303 299 295 291 286
53 53 56 58 65 66 59 50 72 71 340 318 321 319 323 340 323 320 314 315 320 319 322 323 323 322 318 313 309 304 301 300 302 303 302 303 303 299 300 296 291 287 284
46 45 49 49 55 41 30 28 37 32 310 286 288 306 312 320 319 315 317 315 314 313 312 313 313 314 310 306 304 305 304 301 301 299 298 298 298 294 297 295 289 287 286
45 41 35 36 34 37 41 33 51 35 358 343 309 308 317 312 319 320 316 310 312 313 314 314 310 308 305 301 298 299 300 300 298 294 294 293 293 293 294 293 287 286 286
43 31 22 25 22 30 47 45 39 38 2 344 324 319 314 314 314 314 311 308 307 308 309 309 309 304 300 299 299 298 295 295 296 292 289 288 289 289 288 290 287 284 284
25 17 11 5 355 354 355 6 -0 355 350 339 324 318 315 316 315 315 310 302 302 303 308 309 308 302 298 298 298 298 297 294 295 293 290 288 288 287 287 288 289 285 284
8 5 3 353 341 333 333 334 336 339 333 322 316 316 314 313 311 309 308 305 302 303 306 308 306 303 301 299 296 295 295 294 293 291 291 290 288 288 286 287 288 287 286